AUA34C LOWW-EDDF

Flight info

Callsign AUA34C
Flight time N/A
Altitude 34000
Route UMSU3C/29 BUWUT DCT DITIS DCT RAPET T170 GAPLA/N0385F240 T178 KERAX KERAX5D
Aircraft A20N/M-SDE2E3FGHIRWXY/LB1

Departure

Time 2026-04-22 20:17
Airport Vienna International Airport (LOWW)

Arrival

Time N/A
Airport Frankfurt Main Airport (EDDF)
Time Latitude Longitude Altitude Speed Heading
2026-04-22 19:51 48.11846 16.56935 599 ft 0 kts 206°
2026-04-22 20:06 48.11848 16.56936 599 ft 2 kts 206°
2026-04-22 20:06 48.11861 16.56945 599 ft 2 kts 206°
2026-04-22 20:07 48.11872 16.56954 599 ft 2 kts 206°
2026-04-22 20:07 48.11881 16.56960 599 ft 2 kts 206°
2026-04-22 20:07 48.11898 16.56965 598 ft 2 kts 168°
2026-04-22 20:07 48.11913 16.56955 598 ft 2 kts 138°
2026-04-22 20:08 48.11920 16.56943 598 ft 1 kts 118°
2026-04-22 20:08 48.11923 16.56934 598 ft 0 kts 117°
2026-04-22 20:11 48.11922 16.56935 598 ft 0 kts 117°
2026-04-22 20:12 48.11903 16.56991 598 ft 12 kts 117°
2026-04-22 20:12 48.11862 16.57117 599 ft 14 kts 116°
2026-04-22 20:12 48.11841 16.57251 600 ft 13 kts 107°
2026-04-22 20:12 48.11783 16.57354 601 ft 13 kts 161°
2026-04-22 20:13 48.11713 16.57384 602 ft 10 kts 165°
2026-04-22 20:13 48.11644 16.57413 603 ft 10 kts 164°
2026-04-22 20:13 48.11573 16.57443 604 ft 11 kts 164°
2026-04-22 20:13 48.11495 16.57458 604 ft 12 kts 193°
2026-04-22 20:14 48.11408 16.57401 605 ft 14 kts 208°
2026-04-22 20:14 48.11319 16.57332 606 ft 14 kts 204°
2026-04-22 20:14 48.11236 16.57274 607 ft 13 kts 206°
2026-04-22 20:14 48.11177 16.57231 608 ft 5 kts 207°
2026-04-22 20:15 48.11166 16.57222 608 ft 0 kts 206°
2026-04-22 20:15 48.11154 16.57214 608 ft 5 kts 206°
2026-04-22 20:15 48.11086 16.57163 609 ft 12 kts 208°
2026-04-22 20:16 48.11060 16.57083 609 ft 7 kts 297°
2026-04-22 20:16 48.11064 16.57071 609 ft 0 kts 298°
2026-04-22 20:16 48.11065 16.57070 609 ft 0 kts 298°
2026-04-22 20:16 48.11109 16.56938 608 ft 48 kts 296°
2026-04-22 20:17 48.11345 16.56212 599 ft 114 kts 296°
2026-04-22 20:17 48.11756 16.54948 650 ft 160 kts 297°
2026-04-22 20:17 48.12239 16.53487 1259 ft 161 kts 296°
2026-04-22 20:17 48.12304 16.51819 1960 ft 173 kts 251°
2026-04-22 20:18 48.11464 16.50513 2667 ft 182 kts 217°
2026-04-22 20:18 48.10326 16.49559 3384 ft 185 kts 213°
2026-04-22 20:18 48.09199 16.48613 4038 ft 187 kts 216°
2026-04-22 20:18 48.08089 16.47539 4478 ft 197 kts 225°
2026-04-22 20:19 48.07216 16.45910 4865 ft 205 kts 249°
2026-04-22 20:19 48.06615 16.43989 5307 ft 218 kts 253°
2026-04-22 20:19 48.06012 16.41846 5746 ft 235 kts 253°
2026-04-22 20:19 48.05338 16.39469 6228 ft 254 kts 252°
2026-04-22 20:20 48.04810 16.36898 6738 ft 263 kts 274°
2026-04-22 20:20 48.05132 16.34246 7294 ft 267 kts 294°
2026-04-22 20:20 48.05794 16.31624 8179 ft 270 kts 296°
2026-04-22 20:20 48.06422 16.29083 9033 ft 274 kts 294°
2026-04-22 20:21 48.07011 16.26485 9846 ft 279 kts 293°
2026-04-22 20:21 48.07584 16.23775 10598 ft 286 kts 292°
2026-04-22 20:21 48.08167 16.20898 11059 ft 303 kts 291°
2026-04-22 20:21 48.08775 16.17793 11480 ft 322 kts 291°
2026-04-22 20:22 48.09388 16.14595 11857 ft 339 kts 290°
2026-04-22 20:22 48.10020 16.11247 12483 ft 348 kts 290°
2026-04-22 20:22 48.10648 16.07896 13274 ft 352 kts 290°
2026-04-22 20:22 48.11295 16.04433 14014 ft 357 kts 290°
2026-04-22 20:23 48.11955 16.00911 14724 ft 362 kts 290°
2026-04-22 20:23 48.12713 15.97345 15340 ft 365 kts 300°
2026-04-22 20:23 48.14101 15.94327 15967 ft 358 kts 320°
2026-04-22 20:23 48.16038 15.92131 16610 ft 356 kts 332°
2026-04-22 20:24 48.17999 15.90146 17292 ft 360 kts 329°
2026-04-22 20:24 48.19954 15.88018 17943 ft 364 kts 329°
2026-04-22 20:24 48.21917 15.85862 18541 ft 368 kts 329°
2026-04-22 20:24 48.23904 15.83690 19145 ft 372 kts 329°
2026-04-22 20:25 48.25871 15.81550 19712 ft 376 kts 330°
2026-04-22 20:25 48.27904 15.79346 20274 ft 380 kts 330°
2026-04-22 20:25 48.29897 15.77192 20818 ft 383 kts 330°
2026-04-22 20:25 48.31920 15.75009 21328 ft 388 kts 330°
2026-04-22 20:26 48.33975 15.72786 21841 ft 391 kts 330°
2026-04-22 20:26 48.36040 15.70553 22337 ft 395 kts 330°
2026-04-22 20:26 48.38142 15.68281 22818 ft 400 kts 330°
2026-04-22 20:26 48.40228 15.66024 23262 ft 404 kts 330°
2026-04-22 20:27 48.42347 15.63729 23713 ft 409 kts 330°
2026-04-22 20:27 48.44556 15.61333 24166 ft 413 kts 330°
2026-04-22 20:27 48.46733 15.58969 24605 ft 416 kts 330°
2026-04-22 20:27 48.48931 15.56578 25033 ft 420 kts 331°
2026-04-22 20:28 48.51161 15.54150 25459 ft 423 kts 331°
2026-04-22 20:28 48.53374 15.51736 25866 ft 426 kts 331°
2026-04-22 20:28 48.55637 15.49270 26212 ft 430 kts 331°
2026-04-22 20:28 48.57932 15.46766 26552 ft 434 kts 331°
2026-04-22 20:29 48.60229 15.44254 26936 ft 437 kts 331°
2026-04-22 20:29 48.62569 15.41691 27298 ft 440 kts 331°
2026-04-22 20:29 48.64891 15.39146 27713 ft 441 kts 332°
2026-04-22 20:29 48.67171 15.36642 28174 ft 441 kts 332°